period_start,C,m1,H,J0,J1,J2,J3,J4,J5,JA,JB,JC,JD,JJ,JK,JN,#
2017-12-17 00:03:40,0.04,2.06,0.00,16.82,20.02,23.25,14.45,46.53,1030.30,2055.00,2720.99,2598.06,2984.56,599.72,616.67,22.80,0000 0000 0000 0000 000000
2017-12-17 00:08:41,0.02,2.06,0.00,16.83,20.02,23.25,14.37,46.49,1030.31,2055.00,2720.31,2597.98,2984.01,599.93,616.83,22.85,0000 0000 0000 0000 000000
2017-12-17 00:13:43,0.05,2.06,0.00,16.84,20.04,23.24,14.44,46.50,1030.34,2055.00,2719.87,2597.34,2983.52,600.02,616.93,22.90,0000 0000 0000 0000 000000
2017-12-17 00:18:44,0.02,2.06,0.00,16.84,20.04,23.26,14.36,46.52,1030.35,2055.00,2719.07,2597.00,2983.00,600.01,616.82,22.95,0000 0000 0000 0000 000000
2017-12-17 00:23:45,0.04,2.06,0.00,16.86,20.04,23.27,14.42,46.55,1030.30,2055.00,2718.43,2596.74,2982.46,600.09,616.90,23.00,0000 0000 0000 0000 000000
2017-12-17 00:28:47,0.02,2.07,0.00,16.86,20.07,23.27,14.41,46.55,1030.30,2055.00,2717.92,2596.06,2982.00,599.92,616.75,23.05,0000 0000 0000 0000 000000
2017-12-17 00:33:48,0.04,2.07,0.00,16.87,20.07,23.28,14.54,46.59,1030.30,2054.99,2717.10,2595.83,2981.44,600.26,617.13,23.10,0000 0000 0000 0000 000000
2017-12-17 00:38:49,0.04,2.07,0.00,16.87,20.08,23.28,14.40,46.56,1030.29,2054.99,2716.49,2595.09,2981.00,599.95,616.64,23.15,0000 0000 0000 0000 000000
2017-12-17 00:43:50,0.02,2.07,0.00,16.89,20.09,23.29,14.45,46.48,1030.29,2054.99,2715.98,2594.98,2980.39,600.17,617.16,23.20,0000 0000 0000 0000 000000
2017-12-17 00:48:51,0.05,2.07,0.00,16.88,20.09,23.31,14.47,46.52,1030.29,2054.97,2715.16,2594.26,2979.95,600.26,617.01,23.25,0000 0000 0000 0000 000000
2017-12-17 00:53:53,0.03,2.08,0.00,16.89,20.10,23.30,14.41,46.53,1030.29,2054.97,2714.61,2593.99,2979.13,600.00,616.79,23.30,0000 0000 0000 0000 000000
2017-12-17 00:58:54,0.03,2.08,0.00,16.91,20.12,23.30,14.42,46.46,1030.29,2054.94,2714.00,2593.49,2978.91,600.01,616.73,23.35,0000 0000 0000 0000 000000
2017-12-17 01:03:55,0.04,2.08,0.00,16.89,20.12,23.30,14.39,46.45,1030.29,2054.90,2713.32,2593.01,2978.11,599.70,616.42,23.40,0000 0000 0000 0000 000000
2017-12-17 01:08:57,0.02,2.08,0.00,16.91,20.12,23.31,14.37,46.57,1030.29,2054.86,2712.74,2592.79,2977.75,599.87,616.57,23.45,0000 0000 0000 0000 000000
2017-12-17 01:13:58,0.04,2.08,0.00,16.91,20.12,23.33,14.49,46.52,1030.29,2054.72,2712.01,2592.06,2977.03,599.94,616.67,23.50,0000 0000 0000 0000 000000
2017-12-17 01:18:59,0.01,2.08,0.00,16.91,20.13,23.32,14.42,46.52,1030.28,2054.52,2711.21,2591.77,2976.60,600.05,616.74,23.55,0000 0000 0000 0000 000000
2017-12-17 01:24:00,0.05,2.09,0.00,16.92,20.13,23.34,14.40,46.45,1030.28,2054.42,2710.50,2591.05,2976.01,600.09,616.85,23.60,0000 0000 0000 0000 000000
2017-12-17 01:29:02,0.04,2.09,0.00,16.92,20.14,23.33,14.43,46.48,1030.27,2054.47,2709.71,2590.82,2975.55,600.26,617.05,23.65,0000 0000 0000 0000 000000
2017-12-17 01:34:03,0.03,2.09,0.00,16.92,20.14,23.34,14.40,46.45,1030.28,2054.49,2708.93,2590.06,2975.00,599.92,616.73,23.70,0000 0000 0000 0000 000000
2017-12-17 01:39:04,0.06,2.09,0.00,16.92,20.14,23.35,14.43,46.47,1030.28,2054.64,2708.09,2589.88,2974.44,600.15,616.91,23.75,0000 0000 0000 0000 000000
2017-12-17 01:44:05,0.03,2.09,0.00,16.94,20.14,23.37,14.41,46.56,1030.29,2054.47,2707.37,2589.10,2973.98,600.17,616.76,23.80,0000 0000 0000 0000 000000
2017-12-17 01:49:07,0.02,2.10,0.00,16.95,20.14,23.38,14.40,46.47,1030.29,2054.43,2706.95,2588.98,2973.19,599.93,616.65,23.85,0000 0000 0000 0000 000000
2017-12-17 01:54:08,0.04,2.10,0.00,16.95,20.14,23.36,14.27,46.47,1030.29,2054.26,2706.17,2588.33,2972.83,599.68,616.25,23.90,0000 0000 0000 0000 000000
2017-12-17 01:59:09,0.03,2.10,0.00,16.96,20.14,23.39,14.43,46.51,1030.29,2054.19,2705.55,2588.00,2972.07,600.08,616.76,23.95,0000 0000 0000 0000 000000
2017-12-17 02:04:10,0.04,2.10,0.00,16.97,20.14,23.40,14.29,46.64,1030.29,2054.08,2704.82,2587.40,2971.73,599.91,616.52,24.00,0000 0000 0000 0000 000000
2017-12-17 02:09:12,0.04,2.10,0.00,16.95,20.14,23.36,14.42,46.75,1030.29,2054.17,2704.04,2587.01,2971.06,600.13,616.86,24.05,0000 0000 0000 0000 000000
2017-12-17 02:14:13,0.02,2.10,0.00,16.98,20.15,23.41,14.50,46.58,1030.29,2054.21,2703.56,2586.94,2970.93,600.27,616.91,24.10,0000 0000 0000 0000 000000
2017-12-17 02:19:14,0.05,2.11,0.00,16.97,20.15,23.41,14.48,46.48,1030.29,2054.18,2703.00,2586.22,2970.14,600.00,616.53,24.15,0000 0000 0000 0000 000000
2017-12-17 02:24:15,0.03,2.11,0.00,16.98,20.16,23.40,14.37,46.38,1030.29,2054.23,2702.39,2586.00,2969.97,599.94,616.55,24.20,0000 0000 0000 0000 000000
2017-12-17 02:29:16,0.02,2.11,0.00,17.00,20.17,23.41,14.33,46.47,1030.29,2054.12,2701.93,2585.71,2969.20,599.68,616.22,24.25,0000 0000 0000 0000 000000
2017-12-17 02:34:17,0.03,2.11,0.00,17.02,20.17,23.41,14.37,46.42,1030.26,2054.10,2701.11,2585.04,2969.00,599.89,616.45,24.30,0000 0000 0000 0000 000000
2017-12-17 02:39:18,0.01,2.11,0.00,16.99,20.17,23.43,14.37,46.42,1030.12,2054.11,2700.96,2585.00,2968.66,599.97,616.55,24.35,0000 0000 0000 0000 000000
2017-12-17 02:44:19,0.03,2.11,0.00,17.02,20.17,23.43,14.42,46.43,1029.94,2054.06,2700.20,2584.77,2968.03,599.90,616.38,24.40,0000 0000 0000 0000 000000
2017-12-17 02:49:21,0.02,2.11,0.00,17.04,20.17,23.42,14.36,46.43,1029.94,2054.03,2699.97,2584.13,2967.96,599.96,616.21,24.45,0000 0000 0000 0000 000000
2017-12-17 02:54:22,0.03,2.12,0.00,17.02,20.17,23.42,14.42,46.31,1029.87,2054.02,2699.31,2584.00,2967.40,600.19,616.36,24.50,0000 0000 0000 0000 000000
2017-12-17 02:59:23,0.01,2.12,0.00,17.05,20.17,23.43,14.34,46.27,1029.83,2054.03,2698.98,2583.95,2967.01,599.56,615.77,24.55,0000 0000 0000 0000 000000
2017-12-17 03:04:24,0.06,2.12,0.00,17.05,20.17,23.46,14.40,46.38,1029.84,2054.02,2698.23,2583.30,2966.57,600.02,616.20,24.60,0000 0000 0000 0000 000000
2017-12-17 03:09:26,0.02,2.12,0.00,17.03,20.17,23.44,14.42,46.38,1029.87,2054.03,2697.47,2583.00,2966.01,599.92,616.14,24.65,0000 0000 0000 0000 000000
2017-12-17 03:14:27,0.03,2.12,0.00,17.04,20.18,23.45,14.34,46.33,1029.84,2054.01,2696.74,2582.91,2965.39,599.79,615.97,24.70,0000 0000 0000 0000 000000
2017-12-17 03:19:29,0.04,2.13,0.00,17.04,20.19,23.45,14.34,46.31,1029.81,2054.00,2695.99,2582.16,2964.96,600.05,616.25,24.75,0000 0000 0000 0000 000000
2017-12-17 03:24:30,0.04,2.13,0.00,17.04,20.19,23.46,14.37,46.27,1029.80,2054.01,2695.20,2582.01,2964.23,599.97,616.18,24.81,0000 0000 0000 0000 000000
2017-12-17 03:29:31,0.01,2.13,0.00,17.04,20.19,23.46,14.42,46.38,1029.80,2054.00,2694.61,2581.99,2963.98,599.99,616.19,24.86,0000 0000 0000 0000 000000
2017-12-17 03:34:32,0.03,2.13,0.00,17.05,20.19,23.48,14.41,46.25,1029.80,2054.00,2693.99,2581.78,2963.34,600.14,616.16,24.91,0000 0000 0000 0000 000000
2017-12-17 03:39:34,0.04,2.13,0.00,17.05,20.19,23.45,14.45,46.37,1029.80,2054.00,2693.24,2581.11,2963.00,600.10,616.36,24.96,0000 0000 0000 0000 000000
2017-12-17 03:44:35,0.02,2.13,0.00,17.03,20.20,23.47,14.41,46.33,1029.80,2054.00,2692.69,2581.00,2962.75,600.02,615.99,25.01,0000 0000 0000 0000 000000
2017-12-17 03:49:36,0.02,2.13,0.00,17.05,20.21,23.49,14.32,46.38,1029.80,2054.00,2691.97,2580.99,2962.07,599.94,616.11,25.06,0000 0000 0000 0000 000000
2017-12-17 03:54:37,0.04,2.14,0.00,17.04,20.22,23.49,14.31,46.40,1029.80,2054.00,2691.15,2580.51,2961.97,599.78,615.95,25.11,0000 0000 0000 0000 000000
2017-12-17 03:59:39,0.03,2.14,0.00,17.04,20.22,23.50,14.45,46.46,1029.80,2054.00,2690.76,2580.01,2961.31,599.93,616.03,25.16,0000 0000 0000 0000 000000
2017-12-17 04:04:40,0.01,2.14,0.00,17.06,20.22,23.49,14.43,46.52,1029.80,2054.00,2690.04,2579.99,2961.02,599.97,615.99,25.21,0000 0000 0000 0000 000000
2017-12-17 04:09:41,0.03,2.14,0.00,17.05,20.22,23.46,14.36,46.42,1029.80,2054.00,2689.67,2579.67,2960.86,599.90,616.03,25.26,0000 0000 0000 0000 000000
2017-12-17 04:14:42,0.03,2.14,0.00,17.05,20.22,23.50,14.38,46.32,1029.80,2054.00,2689.02,2579.06,2960.15,599.83,615.95,25.31,0000 0000 0000 0000 000000
2017-12-17 04:19:44,0.01,2.14,0.00,17.06,20.22,23.51,14.38,46.38,1029.80,2054.00,2688.66,2579.00,2960.00,599.75,615.82,25.36,0000 0000 0000 0000 000000
2017-12-17 04:24:45,0.01,2.14,0.00,17.07,20.22,23.50,14.34,46.42,1029.80,2054.00,2688.04,2578.97,2959.94,599.93,615.92,25.41,0000 0000 0000 0000 000000
2017-12-17 04:29:46,0.06,2.15,0.00,17.06,20.22,23.50,14.34,46.44,1029.79,2053.99,2687.28,2578.29,2959.21,599.72,615.84,25.46,0000 0000 0000 0000 000000
2017-12-17 04:34:48,0.01,2.15,0.00,17.05,20.22,23.50,14.37,46.42,1029.80,2053.99,2686.79,2578.00,2958.90,599.93,616.06,25.51,0000 0000 0000 0000 000000
2017-12-17 04:39:49,0.03,2.15,0.00,17.06,20.22,23.51,14.43,46.42,1029.80,2053.99,2686.05,2577.93,2958.15,599.68,615.94,25.56,0000 0000 0000 0000 000000
2017-12-17 04:44:50,0.03,2.15,0.00,17.05,20.23,23.50,14.36,46.33,1029.80,2053.98,2685.95,2577.27,2957.76,599.87,616.09,25.61,0000 0000 0000 0000 000000
2017-12-17 04:49:51,0.03,2.15,0.00,17.05,20.24,23.52,14.44,46.34,1029.80,2053.97,2685.20,2577.00,2957.04,599.70,615.84,25.66,0000 0000 0000 0000 000000
2017-12-17 04:54:52,0.01,2.15,0.00,17.04,20.24,23.50,14.35,46.29,1029.80,2053.98,2684.76,2576.98,2956.99,599.73,616.01,25.71,0000 0000 0000 0000 000000
2017-12-17 04:59:53,0.03,2.16,0.00,17.05,20.24,23.50,14.41,46.31,1029.80,2053.99,2684.01,2576.71,2956.86,600.17,616.26,25.76,0000 0000 0000 0000 000000
2017-12-17 05:04:55,0.05,2.16,0.00,17.07,20.24,23.50,14.37,46.33,1029.80,2053.99,2683.19,2576.05,2956.11,600.02,616.21,25.81,0000 0000 0000 0000 000000
2017-12-17 05:09:56,0.01,2.16,0.00,17.04,20.24,23.52,14.44,46.25,1029.80,2053.99,2682.84,2576.00,2956.00,599.92,616.08,25.86,0000 0000 0000 0000 000000
2017-12-17 05:14:57,0.03,2.16,0.00,17.05,20.24,23.51,14.37,46.25,1029.80,2053.99,2682.08,2575.89,2955.76,599.66,615.76,25.91,0000 0000 0000 0000 000000
2017-12-17 05:19:58,0.03,2.16,0.00,17.05,20.24,23.50,14.38,46.25,1029.80,2053.99,2681.82,2575.29,2955.06,600.01,616.06,25.96,0000 0000 0000 0000 000000
2017-12-17 05:25:00,0.02,2.16,0.00,17.04,20.24,23.52,14.37,46.41,1029.80,2053.99,2681.05,2575.01,2954.98,599.95,616.08,26.01,0000 0000 0000 0000 000000
2017-12-17 05:30:01,0.03,2.16,0.00,17.04,20.24,23.51,14.39,46.47,1029.80,2053.99,2680.60,2574.99,2954.40,599.89,616.04,26.06,0000 0000 0000 0000 000000
2017-12-17 05:35:02,0.02,2.17,0.00,17.04,20.24,23.50,14.35,46.34,1029.80,2053.99,2680.02,2574.73,2953.99,599.92,615.94,26.11,0000 0000 0000 0000 000000
2017-12-17 05:40:04,0.04,2.17,0.00,17.03,20.24,23.50,14.37,46.40,1029.80,2053.99,2679.76,2574.07,2953.57,599.86,616.05,26.16,0000 0000 0000 0000 000000
2017-12-17 05:45:05,0.02,2.17,0.00,17.03,20.24,23.49,14.41,46.42,1029.80,2053.99,2679.04,2573.99,2953.03,599.94,616.16,26.21,0000 0000 0000 0000 000000
2017-12-17 05:50:07,0.02,2.17,0.00,17.03,20.24,23.50,14.39,46.47,1029.80,2053.99,2678.47,2573.95,2952.82,600.00,616.19,26.26,0000 0000 0000 0000 000000
2017-12-17 05:55:08,0.04,2.17,0.00,17.02,20.24,23.52,14.39,46.47,1029.80,2053.97,2678.00,2573.50,2952.12,599.94,616.27,26.31,0000 0000 0000 0000 000000
2017-12-17 06:00:09,0.02,2.17,0.00,17.03,20.24,23.52,14.39,46.44,1029.79,2053.97,2677.60,2573.03,2952.00,600.13,616.36,26.36,0000 0000 0000 0000 000000
2017-12-17 06:05:11,0.02,2.17,0.00,17.01,20.24,23.53,14.40,46.42,1029.79,2053.98,2677.00,2572.98,2951.49,599.81,616.02,26.41,0000 0000 0000 0000 000000
2017-12-17 06:10:12,0.03,2.18,0.00,17.00,20.24,23.51,14.31,46.31,1029.76,2053.98,2676.25,2572.85,2951.01,599.85,616.12,26.46,0000 0000 0000 0000 000000
2017-12-17 06:15:13,0.03,2.18,0.00,17.02,20.24,23.50,14.43,46.35,1029.77,2053.98,2675.78,2572.13,2950.95,600.11,616.24,26.51,0000 0000 0000 0000 000000
2017-12-17 06:20:14,0.03,2.18,0.00,17.00,20.24,23.49,14.36,46.35,1029.71,2053.98,2675.04,2572.00,2950.28,600.10,616.28,26.56,0000 0000 0000 0000 000000
2017-12-17 06:25:15,0.01,2.18,0.00,17.01,20.24,23.51,14.38,46.36,1029.58,2053.99,2674.67,2571.99,2950.00,600.10,616.18,26.61,0000 0000 0000 0000 000000
2017-12-17 06:30:17,0.04,2.18,0.00,16.99,20.24,23.52,14.45,46.35,1029.58,2053.99,2674.03,2571.67,2949.48,600.15,616.28,26.66,0000 0000 0000 0000 000000
2017-12-17 06:35:18,0.03,2.18,0.00,16.99,20.24,23.49,14.37,46.36,1029.65,2053.99,2673.47,2571.07,2949.01,600.00,616.29,26.71,0000 0000 0000 0000 000000
2017-12-17 06:40:19,0.01,2.19,0.00,16.99,20.23,23.50,14.36,46.31,1029.55,2053.98,2672.95,2571.00,2948.80,599.58,615.91,26.76,0000 0000 0000 0000 000000
2017-12-17 06:45:21,0.03,2.19,0.00,16.98,20.22,23.49,14.40,46.36,1029.43,2053.99,2672.17,2570.95,2948.07,599.93,616.07,26.81,0000 0000 0000 0000 000000
2017-12-17 06:50:22,0.03,2.19,0.00,16.98,20.22,23.51,14.42,46.41,1029.34,2053.99,2671.82,2570.36,2947.98,600.23,616.24,26.86,0000 0000 0000 0000 000000
2017-12-17 06:55:23,0.03,2.19,0.00,17.00,20.22,23.49,14.40,46.45,1029.33,2053.99,2671.04,2570.01,2947.40,600.10,616.03,26.91,0000 0000 0000 0000 000000
2017-12-17 07:00:25,0.02,2.19,0.00,16.99,20.22,23.47,14.45,46.58,1029.33,2053.99,2670.40,2570.00,2947.00,600.17,616.10,26.96,0000 0000 0000 0000 000000
2017-12-17 07:05:26,0.03,2.19,0.00,16.99,20.22,23.50,14.46,46.64,1029.31,2054.00,2669.82,2569.69,2946.76,600.19,616.17,27.01,0000 0000 0000 0000 000000
2017-12-17 07:10:27,0.04,2.20,0.00,16.98,20.22,23.50,14.39,46.63,1029.31,2054.00,2669.04,2569.05,2946.05,599.87,615.90,27.06,0000 0000 0000 0000 000000
2017-12-17 07:15:28,0.01,2.20,0.00,16.99,20.22,23.53,14.36,46.57,1029.31,2054.00,2668.68,2569.00,2945.90,600.01,616.03,27.11,0000 0000 0000 0000 000000
2017-12-17 07:20:30,0.02,2.20,0.00,17.00,20.21,23.51,14.35,46.62,1029.32,2054.00,2668.00,2568.94,2945.11,599.94,615.86,27.16,0000 0000 0000 0000 000000
2017-12-17 07:25:31,0.05,2.20,0.00,16.98,20.20,23.47,14.43,46.56,1029.31,2054.00,2667.27,2568.26,2944.96,599.97,615.97,27.21,0000 0000 0000 0000 000000
2017-12-17 07:30:32,0.03,2.20,0.00,16.98,20.20,23.50,14.32,46.63,1029.32,2054.00,2666.73,2568.01,2944.22,599.72,615.65,27.26,0000 0000 0000 0000 000000
2017-12-17 07:35:33,0.01,2.20,0.00,16.97,20.19,23.47,14.41,46.55,1029.32,2054.00,2666.03,2567.99,2944.00,600.09,616.15,27.31,0000 0000 0000 0000 000000
2017-12-17 07:40:35,0.04,2.20,0.00,16.97,20.19,23.48,14.35,46.61,1029.31,2054.00,2665.56,2567.67,2943.68,600.06,615.92,27.36,0000 0000 0000 0000 000000
2017-12-17 07:45:36,0.02,2.21,0.00,16.97,20.19,23.45,14.41,46.52,1029.31,2054.00,2665.00,2567.08,2943.03,600.01,615.98,27.41,0000 0000 0000 0000 000000
2017-12-17 07:50:37,0.02,2.21,0.00,16.95,20.19,23.47,14.46,46.64,1029.31,2054.00,2664.39,2567.01,2942.98,600.05,616.14,27.46,0000 0000 0000 0000 000000
2017-12-17 07:55:39,0.02,2.21,0.00,16.97,20.19,23.48,14.36,46.66,1029.31,2054.00,2663.85,2566.98,2942.53,600.00,616.02,27.51,0000 0000 0000 0000 000000
2017-12-17 08:00:40,0.04,2.21,0.00,16.95,20.18,23.48,14.44,46.72,1029.31,2054.00,2663.05,2566.47,2942.01,600.13,616.18,27.56,0000 0000 0000 0000 000000
2017-12-17 08:05:41,0.02,2.21,0.00,16.95,20.17,23.47,14.37,46.67,1029.31,2054.01,2662.47,2566.03,2941.90,599.85,615.91,27.61,0000 0000 0000 0000 000000
2017-12-17 08:10:42,0.02,2.21,0.00,16.97,20.17,23.47,14.36,46.60,1029.32,2054.02,2661.97,2565.99,2941.17,600.05,616.02,27.66,0000 0000 0000 0000 000000
2017-12-17 08:15:43,0.03,2.22,0.00,16.96,20.17,23.45,14.38,46.59,1029.32,2054.03,2661.23,2565.83,2940.99,599.93,616.07,27.71,0000 0000 0000 0000 000000
2017-12-17 08:20:45,0.04,2.22,0.00,16.94,20.17,23.46,14.42,46.61,1029.32,2054.02,2661.00,2565.15,2940.38,600.01,616.22,27.76,0000 0000 0000 0000 000000
2017-12-17 08:25:46,0.02,2.22,0.00,16.94,20.17,23.45,14.44,46.66,1029.32,2054.02,2660.29,2565.00,2940.00,600.07,616.15,27.81,0000 0000 0000 0000 000000
2017-12-17 08:30:47,0.01,2.22,0.00,16.93,20.17,23.44,14.41,46.64,1029.32,2054.03,2659.92,2564.98,2939.69,599.73,615.79,27.86,0000 0000 0000 0000 000000
2017-12-17 08:35:48,0.05,2.22,0.00,16.92,20.16,23.44,14.51,46.69,1029.32,2054.02,2659.06,2564.47,2939.04,600.37,616.54,27.91,0000 0000 0000 0000 000000
2017-12-17 08:40:50,0.03,2.22,0.00,16.92,20.15,23.46,14.41,46.68,1029.31,2054.03,2658.16,2564.01,2938.87,599.83,616.04,27.96,0000 0000 0000 0000 000000
2017-12-17 08:45:51,0.01,2.23,0.00,16.92,20.14,23.44,14.45,46.76,1029.31,2054.03,2657.99,2563.98,2938.07,600.17,616.18,28.01,0000 0000 0000 0000 000000
2017-12-17 08:50:53,0.02,2.23,0.00,16.92,20.14,23.46,14.40,46.69,1029.31,2054.03,2657.62,2563.85,2937.96,600.01,616.04,28.06,0000 0000 0000 0000 000000
2017-12-17 08:55:54,0.05,2.23,0.00,16.92,20.14,23.42,14.42,46.72,1029.31,2054.05,2657.01,2563.15,2937.29,600.14,616.19,28.11,0000 0000 0000 0000 000000
2017-12-17 09:00:56,0.02,2.23,0.00,16.91,20.14,23.43,14.41,46.58,1029.31,2054.02,2656.55,2563.00,2937.00,600.04,616.19,28.16,0000 0000 0000 0000 000000
2017-12-17 09:05:57,0.02,2.23,0.00,16.90,20.14,23.43,14.44,46.61,1029.31,2054.04,2656.02,2562.99,2936.62,600.22,616.40,28.21,0000 0000 0000 0000 000000
2017-12-17 09:10:58,0.04,2.23,0.00,16.92,20.12,23.42,14.44,46.58,1029.30,2054.02,2655.40,2562.67,2936.03,600.08,616.30,28.26,0000 0000 0000 0000 000000
2017-12-17 09:16:00,0.03,2.23,0.00,16.92,20.12,23.47,14.39,46.48,1029.31,2054.04,2654.79,2562.04,2935.98,599.89,616.11,28.31,0000 0000 0000 0000 000000
2017-12-17 09:21:01,0.02,2.24,0.00,16.90,20.12,23.44,14.36,46.46,1029.29,2054.02,2654.11,2562.00,2935.18,599.50,615.65,28.36,0000 0000 0000 0000 000000
2017-12-17 09:26:02,0.01,2.24,0.00,16.91,20.12,23.40,14.42,46.41,1029.28,2054.02,2653.85,2561.82,2934.98,600.18,616.11,28.41,0000 0000 0000 0000 000000
2017-12-17 09:31:03,0.05,2.24,0.00,16.92,20.12,23.43,14.36,46.47,1029.19,2054.02,2653.07,2561.11,2934.40,599.58,615.63,28.46,0000 0000 0000 0000 000000
2017-12-17 09:36:05,0.02,2.24,0.00,16.91,20.12,23.42,14.47,46.56,1029.11,2054.03,2652.54,2561.00,2934.01,600.10,616.10,28.51,0000 0000 0000 0000 000000
2017-12-17 09:41:06,0.01,2.24,0.00,16.89,20.11,23.41,14.40,46.63,1029.11,2054.04,2652.00,2560.99,2933.97,599.92,615.93,28.56,0000 0000 0000 0000 000000
2017-12-17 09:46:07,0.06,2.24,0.00,16.90,20.10,23.40,14.37,46.52,1029.07,2054.07,2651.40,2560.55,2933.28,599.81,615.88,28.61,0000 0000 0000 0000 000000
2017-12-17 09:51:08,0.02,2.25,0.00,16.88,20.10,23.41,14.41,46.49,1029.13,2054.16,2651.00,2560.06,2933.01,600.20,616.33,28.66,0000 0000 0000 0000 000000
2017-12-17 09:56:09,0.02,2.25,0.00,16.88,20.09,23.37,14.35,46.42,1029.23,2054.14,2650.74,2560.00,2932.72,599.57,615.67,28.71,0000 0000 0000 0000 000000
2017-12-17 10:01:11,0.02,2.25,0.00,16.89,20.09,23.40,14.43,46.62,1029.21,2054.13,2650.04,2559.98,2932.09,600.17,616.30,28.77,0000 0000 0000 0000 000000
2017-12-17 10:06:12,0.06,2.25,0.00,16.88,20.09,23.40,14.40,46.60,1029.20,2054.22,2649.45,2559.52,2932.00,600.03,616.26,28.82,0000 0000 0000 0000 000000
2017-12-17 10:11:13,0.04,2.25,0.00,16.86,20.09,23.38,14.39,46.60,1029.17,2054.52,2648.99,2559.04,2931.65,600.31,616.42,28.87,0000 0000 0000 0000 000000
2017-12-17 10:16:15,0.03,2.25,0.00,16.89,20.09,23.36,14.31,46.64,1029.14,2054.60,2648.30,2559.00,2931.02,599.46,615.51,28.92,0000 0000 0000 0000 000000
2017-12-17 10:21:16,0.03,2.26,0.00,16.86,20.09,23.35,14.50,46.67,1029.20,2054.80,2647.99,2559.00,2930.96,600.07,616.20,28.97,0000 0000 0000 0000 000000
2017-12-17 10:26:18,0.02,2.26,0.00,16.85,20.08,23.34,14.43,46.67,1029.10,2054.69,2647.31,2558.84,2930.21,600.00,616.14,29.02,0000 0000 0000 0000 000000
2017-12-17 10:31:19,0.04,2.26,0.00,16.84,20.07,23.36,14.31,46.68,1029.00,2054.70,2646.97,2558.13,2930.00,599.91,616.11,29.07,0000 0000 0000 0000 000000
2017-12-17 10:36:21,0.04,2.26,0.00,16.83,20.07,23.37,14.36,46.71,1029.01,2054.79,2646.27,2558.00,2929.63,599.98,616.11,29.12,0000 0000 0000 0000 000000
2017-12-17 10:41:22,0.02,2.26,0.00,16.84,20.07,23.35,14.47,46.73,1029.08,2054.84,2645.96,2557.97,2929.04,600.04,616.20,29.17,0000 0000 0000 0000 000000
2017-12-17 10:46:23,0.04,2.26,0.00,16.84,20.07,23.35,14.40,46.73,1028.98,2054.80,2645.18,2557.45,2928.80,600.04,616.17,29.22,0000 0000 0000 0000 000000
2017-12-17 10:51:25,0.03,2.27,0.00,16.85,20.07,23.33,14.35,46.74,1028.90,2054.72,2644.65,2557.01,2928.10,599.99,616.06,29.27,0000 0000 0000 0000 000000
2017-12-17 10:56:26,0.01,2.27,0.00,16.87,20.07,23.35,14.48,46.74,1028.89,2054.86,2644.04,2556.99,2927.99,600.15,616.15,29.32,0000 0000 0000 0000 000000
2017-12-17 11:01:27,0.03,2.27,0.00,16.83,20.07,23.33,14.49,46.67,1028.84,2054.82,2643.87,2556.78,2927.56,600.36,616.29,29.37,0000 0000 0000 0000 000000
2017-12-17 11:06:28,0.04,2.27,0.00,16.83,20.07,23.33,14.43,46.67,1028.84,2054.77,2643.08,2556.09,2927.02,600.35,616.51,29.42,0000 0000 0000 0000 000000
2017-12-17 11:11:30,0.01,2.27,0.00,16.84,20.07,23.33,14.30,46.67,1028.83,2054.81,2642.75,2556.00,2926.78,599.71,615.75,29.47,0000 0000 0000 0000 000000
2017-12-17 11:16:31,0.04,2.27,0.00,16.82,20.06,23.37,14.42,46.67,1028.84,2054.88,2642.06,2555.97,2926.10,599.91,615.96,29.52,0000 0000 0000 0000 000000
2017-12-17 11:21:32,0.04,2.27,0.00,16.84,20.06,23.32,14.37,46.76,1028.83,2054.93,2641.59,2555.53,2925.99,599.75,615.75,29.57,0000 0000 0000 0000 000000
2017-12-17 11:26:33,0.03,2.28,0.00,16.85,20.06,23.33,14.33,46.69,1028.83,2054.96,2641.02,2555.06,2925.66,599.95,615.91,29.62,0000 0000 0000 0000 000000
2017-12-17 11:31:35,0.02,2.28,0.00,16.84,20.05,23.32,14.44,46.74,1028.83,2054.96,2640.75,2554.99,2925.04,600.09,616.01,29.67,0000 0000 0000 0000 000000
2017-12-17 11:36:36,0.01,2.28,0.00,16.81,20.05,23.33,14.37,46.67,1028.83,2054.90,2640.06,2554.89,2924.77,599.91,615.98,29.72,0000 0000 0000 0000 000000
2017-12-17 11:41:37,0.04,2.28,0.00,16.82,20.05,23.32,14.35,46.54,1028.83,2054.87,2639.92,2554.17,2924.04,599.76,615.82,29.77,0000 0000 0000 0000 000000
2017-12-17 11:46:38,0.02,2.28,0.00,16.82,20.05,23.32,14.32,46.49,1028.80,2054.92,2639.17,2554.01,2923.98,600.01,615.97,29.82,0000 0000 0000 0000 000000
2017-12-17 11:51:39,0.02,2.28,0.00,16.82,20.04,23.31,14.25,46.50,1028.75,2054.83,2638.70,2553.97,2923.31,599.58,615.66,29.87,0000 0000 0000 0000 000000
2017-12-17 11:56:41,0.04,2.29,0.00,16.82,20.04,23.33,14.37,46.44,1028.78,2054.91,2638.03,2553.52,2923.00,600.08,616.07,29.92,0000 0000 0000 0000 000000
2017-12-17 12:01:42,0.03,2.29,0.00,16.84,20.04,23.30,14.42,46.52,1028.64,2054.94,2637.55,2553.03,2922.82,600.26,616.15,29.97,0000 0000 0000 0000 000000
2017-12-17 12:06:43,0.02,2.29,0.00,16.84,20.04,23.31,14.39,46.61,1028.43,2054.95,2637.01,2553.00,2922.09,599.99,615.67,30.02,0000 0000 0000 0000 000000
2017-12-17 12:11:45,0.03,2.29,0.00,16.82,20.04,23.29,14.37,46.52,1028.36,2054.95,2636.36,2552.73,2921.97,599.99,615.83,30.07,0000 0000 0000 0000 000000
2017-12-17 12:16:46,0.03,2.29,0.00,16.84,20.04,23.32,14.43,46.48,1028.35,2054.96,2636.02,2552.11,2921.23,600.14,615.87,30.12,0000 0000 0000 0000 000000
2017-12-17 12:21:47,-0.00,2.29,0.00,16.84,20.04,23.30,14.38,46.37,1028.34,2054.79,2635.54,2552.00,2920.99,599.76,615.65,30.17,0000 0000 0000 0000 000000
2017-12-17 12:26:49,0.04,2.29,0.00,16.84,20.04,23.31,14.40,46.52,1028.34,2054.81,2635.00,2551.92,2920.44,599.84,615.59,30.22,0000 0000 0000 0000 000000
2017-12-17 12:31:50,0.01,2.30,0.00,16.84,20.04,23.31,14.45,46.51,1028.32,2054.49,2634.39,2551.16,2919.99,599.87,615.52,30.27,0000 0000 0000 0000 000000
2017-12-17 12:36:52,0.03,2.30,0.00,16.83,20.04,23.29,14.30,46.48,1028.30,2054.54,2633.98,2551.00,2919.57,599.67,615.37,30.32,0000 0000 0000 0000 000000
2017-12-17 12:41:53,0.01,2.30,0.00,16.83,20.03,23.30,14.40,46.45,1028.19,2054.46,2633.26,2550.91,2919.03,599.94,615.51,30.37,0000 0000 0000 0000 000000
2017-12-17 12:46:54,0.04,2.30,0.00,16.84,20.02,23.31,14.39,46.47,1028.04,2054.55,2632.93,2550.22,2918.91,599.89,615.55,30.42,0000 0000 0000 0000 000000
2017-12-17 12:51:55,0.06,2.30,0.00,16.84,20.02,23.30,14.43,46.60,1027.90,2054.78,2632.15,2550.01,2918.21,600.22,615.68,30.47,0000 0000 0000 0000 000000
2017-12-17 12:56:57,0.02,2.30,0.00,16.81,20.02,23.30,14.47,46.62,1027.89,2054.82,2631.68,2549.96,2918.00,600.22,615.77,30.52,0000 0000 0000 0000 000000